Location: Island Grove Observatory.
(44.2333°N, 79.4500°W)
Time: 12:48:22
(UTC-05:00)

N. Korean satellite - Pass Details

Date: 04 December 2021
Orbit: 447 x 491 km, 97.3° (Epoch: 23 January)

Event Time Altitude Azimuth Distance (km) Brightness Sun altitude
Rises 04:33:58 0° 32° (NNE) 2,462 10.5 -32.0°
Reaches altitude 10° 04:36:52 10° 60° (ENE) 1,580 9.8 -31.4°
Maximum altitude 04:38:37 13° 92° (E) 1,377 9.7 -31.1°
Drops below altitude 10° 04:40:21 10° 123° (ESE) 1,571 9.8 -30.8°
Sets 04:43:13 0° 151° (SSE) 2,437 10.5 -30.3°
